Debrecen, Hungary

11:40 PM CET on February 07, 2016 (GMT +0100)
Debrecen

Weather History for LHDC - October, 2012

Change the Weather History Date:

Thursday, October 11, 2012

  Actual Average Record
Temperature  
Mean Temperature 48 °F -  
Max Temperature 60 °F 56 °F - ()
Min Temperature 37 °F 39 °F - ()
Degree Days  
Heating Degree Days 16    
Moisture  
Dew Point 38 °F    
Average Humidity 64    
Maximum Humidity 93    
Minimum Humidity 33    
Precipitation  
Precipitation 0.00 in 0.05 in - ()
Sea Level Pressure  
Sea Level Pressure 29.96 in    
Wind  
Wind Speed 3 mph ()    
Max Wind Speed 6 mph    
Max Gust Speed -    
Visibility 7.9 miles    
Events      
T = Trace of Precipitation, MM = Missing Value Source: Averaged Metar Reports

Daily Weather History Graph

Daily Weather History Graph

Search for Another Location

Airport or City:

Trip Planner

Search our weather history database for the weather conditions in past years. The results will help you decide how hot, cold, wet, or windy it might be!

Date:

Astronomy

Oct. 11, 2012 Rise Set
Actual Time 6:46 AM CEST 5:52 PM CEST
Civil Twilight 6:15 AM CEST 6:23 PM CEST
Nautical Twilight 5:40 AM CEST 6:59 PM CEST
Astronomical Twilight 5:04 AM CEST 7:34 PM CEST
Moon 1:48 AM CEST (10/11) 3:33 PM CEST (10/11)
Length of Visible Light 12h 07m
Length of Day
11h 06m
Waning Crescent, 20% of the Moon is Illuminated
Oct 11
Waning Crescent
Oct 15
New
Oct 22
First Quarter
Oct 29
Full
Nov 7
Last Quarter

Hourly Weather History & Observations

Time (CEST) Temp. Dew Point Humidity Pressure Visibility Wind Dir Wind Speed Gust Speed Precip Events Conditions
2:00 AM 44 °F 39 °F 76% 29.94 in - East 2.2 mph - -  
4:45 AM 41.0 °F 39.2 °F 93% 29.92 in - SE 2.3 mph - N/A   Clear
5:45 AM 39.2 °F 37.4 °F 93% 29.95 in - South 2.3 mph - N/A   Clear
6:15 AM 39.2 °F 37.4 °F 93% 29.95 in - SW 1.2 mph - N/A   Clear
6:45 AM 37.4 °F 35.6 °F 93% 29.95 in - SSW 1.2 mph - N/A   Clear
7:00 AM - - N/A% - - Variable 3.5 mph - N/A   Dust Whirls
7:15 AM 37.4 °F 35.6 °F 93% 29.95 in - Calm Calm - N/A   Clear
7:45 AM 37.4 °F 35.6 °F 93% 29.95 in - ENE 2.3 mph - N/A   Clear
8:00 AM 38 °F 36 °F 91% 29.97 in 9 mi ENE 2.2 mph - -   Partly Cloudy
8:15 AM 42.8 °F 41.0 °F 93% 29.95 in - Calm Calm - N/A   Clear
9:15 AM 48.2 °F 42.8 °F 82% 29.98 in - SE 1.2 mph - N/A   Clear
9:45 AM 50.0 °F 42.8 °F 76% 29.98 in - SSE 2.3 mph - N/A   Clear
10:00 AM - - N/A% - - Variable 3.5 mph - N/A   Clear
10:15 AM 51.8 °F 42.8 °F 71% 29.98 in - South 2.3 mph - N/A   Clear
10:45 AM 53.6 °F 41.0 °F 62% 29.98 in - SW 2.3 mph - N/A   Clear
11:45 AM 55.4 °F 41.0 °F 58% 29.98 in 6.2 mi South 4.6 mph - N/A   Partly Cloudy
12:15 PM 57.2 °F 39.2 °F 51% 29.98 in 6.2 mi South 4.6 mph - N/A   Partly Cloudy
12:45 PM 59.0 °F 39.2 °F 48% 29.98 in 6.2 mi WSW 4.6 mph - N/A   Partly Cloudy
1:00 PM - - N/A% - 6.2 mi Variable 3.5 mph - N/A   Mostly Cloudy
1:15 PM 59.0 °F 37.4 °F 45% 29.95 in 6.2 mi South 4.6 mph - N/A   Partly Cloudy
1:45 PM 59.0 °F 37.4 °F 45% 29.95 in 6.2 mi WSW 3.5 mph - N/A   Partly Cloudy
2:00 PM 59 °F 38 °F 33% 29.95 in 19 mi WSW 4.5 mph - -   Partly Cloudy
2:15 PM 59.0 °F 37.4 °F 45% 29.95 in 6.2 mi SW 4.6 mph - N/A   Partly Cloudy
2:45 PM 60.8 °F 37.4 °F 42% 29.95 in - South 5.8 mph - N/A   Clear
3:15 PM 60.8 °F 37.4 °F 42% 29.95 in - WSW 3.5 mph - N/A   Clear
3:45 PM 60.8 °F 35.6 °F 39% 29.95 in - WSW 3.5 mph - N/A   Clear
4:00 PM - - N/A% - - Variable 3.5 mph - N/A   Clear
4:15 PM 59.0 °F 33.8 °F 39% 29.95 in - WSW 5.8 mph - N/A   Clear
4:45 PM 57.2 °F 35.6 °F 44% 29.95 in - West 5.8 mph - N/A   Clear
5:45 PM 55.4 °F 37.4 °F 51% 29.95 in 6.2 mi West 5.8 mph - N/A   Partly Cloudy
6:15 PM 53.6 °F 37.4 °F 54% 29.98 in 6.2 mi West 5.8 mph - N/A   Partly Cloudy
6:45 PM 51.8 °F 37.4 °F 58% 29.98 in 6.2 mi WNW 3.5 mph - N/A   Partly Cloudy
7:15 PM 50.0 °F 37.4 °F 62% 29.98 in 6.2 mi Calm Calm - N/A   Partly Cloudy
7:45 PM 48.2 °F 37.4 °F 66% 29.98 in 6.2 mi NNW 2.3 mph - N/A   Partly Cloudy
8:00 PM 48 °F 38 °F 59% 29.98 in 16 mi NNW 2.2 mph - -   Partly Cloudy
8:21 PM - - N/A% - - North - - N/A   Unknown